FW1382 Weather Reports


time (UTC)temp
C
wind
direction
speed
KPH
gust
KPH
rain 1hr
cm
rain 24hr
cm
rain mn
cm
humidity
%
barometer
mb
20260506003048 30 165 12.9 17.7 0.00 0.00 0.00 67 1002.9
20260506001604 32 169 14.5 20.9 0.00 0.00 0.00 61 1003.0
20260506000054 33 193 4.8 9.7 0.00 0.00 0.00 48 1002.9
20260505234616 33 232 3.2 11.3 0.00 0.00 0.00 48 1002.9
20260505233009 33 180 4.8 9.7 0.00 0.00 0.00 47 1002.8
20260505231526 33 236 6.4 16.1 0.00 0.00 0.00 46 1002.9
20260505230030 33 244 4.8 14.5 0.00 0.00 0.00 49 1002.9
20260505224552 32 215 8.0 16.1 0.00 0.00 0.00 51 1002.9
20260505223117 32 217 8.0 16.1 0.00 0.00 0.00 50 1002.8
20260505221502 32 237 11.3 19.3 0.00 0.00 0.00 51 1002.9
20260505220008 32 222 11.3 17.7 0.00 0.00 0.00 51 1002.9
20260505214516 32 222 8.0 16.1 0.00 0.00 0.00 52 1003.0
20260505213031 32 219 9.7 14.5 0.00 0.00 0.00 51 1002.9
20260505211541 32 211 14.5 19.3 0.00 0.00 0.00 52 1002.9
20260505210045 32 201 11.3 22.5 0.00 0.00 0.00 53 1003.3
20260505204609 32 190 11.3 19.3 0.00 0.00 0.00 54 1003.6
20260505203132 32 213 11.3 20.9 0.00 0.00 0.00 56 1003.5
20260505201508 31 211 12.9 20.9 0.00 0.00 0.00 57 1004.0
20260505200027 31 244 12.9 27.4 0.00 0.00 0.00 57 1004.2
20260505194550 31 236 14.5 27.4 0.00 0.00 0.00 57 1004.3
20260505193054 31 209 16.1 29.0 0.00 0.00 0.00 59 1004.3
20260505191605 31 204 16.1 20.9 0.00 0.00 0.00 62 1004.5
20260505190011 30 241 12.9 29.0 0.00 0.00 0.00 63 1004.5
20260505184534 30 203 16.1 29.0 0.00 0.00 0.00 66 1004.7
20260505183048 30 221 12.9 30.6 0.00 0.00 0.00 64 1004.9
20260505181600 29 184 17.7 29.0 0.00 0.00 0.00 65 1005.0
20260505180114 28 221 16.1 24.1 0.00 0.00 0.00 67 1005.1
20260505174506 28 198 16.1 30.6 0.00 0.00 0.00 69 1005.5
20260505173025 28 235 24.1 33.8 0.00 0.00 0.00 68 1005.4
20260505170011 27 169 17.7 25.7 0.00 0.00 0.00 72 1005.4
20260505164535 26 209 17.7 25.7 0.00 0.00 0.00 74 1005.8
20260505163051 26 233 14.5 29.0 0.00 0.00 0.00 74 1005.7
20260505161559 26 185 17.7 33.8 0.00 0.00 0.00 75 1005.5
20260505160118 25 211 22.5 32.2 0.00 0.00 0.00 76 1005.7
20260505153052 25 240 16.1 32.2 0.00 0.00 0.00 77 1005.8
20260505151505 24 240 19.3 37.0 0.00 0.00 0.00 79 1005.9
20260505124512 21 187 9.7 20.9 0.00 0.00 0.00 88 1004.9
20260505123021 20 223 11.3 19.3 0.00 0.00 0.00 89 1004.8
20260505121546 20 202 11.3 25.7 0.00 0.00 0.00 89 1004.5
20260505120117 20 192 16.1 24.1 0.00 0.00 0.00 89 1004.3
20260505114502 20 187 14.5 33.8 0.00 0.00 0.00 89 1004.0
20260505113009 20 206 16.1 27.4 0.00 0.00 0.00 88 1003.9
20260505111532 20 229 17.7 25.7 0.00 0.00 0.00 88 1004.2
20260505101536 21 213 22.5 32.2 0.00 0.00 0.00 88 1003.8
20260505100025 21 211 17.7 37.0 0.00 0.00 0.00 87 1003.9
20260505094526 21 225 17.7 37.0 0.00 0.00 0.00 87 1004.0
20260505093032 21 198 20.9 38.6 0.00 0.00 0.00 87 1004.2
20260505091521 21 216 17.7 30.6 0.00 0.00 0.00 87 1004.2
20260505090032 21 195 19.3 40.2 0.00 0.00 0.00 87 1004.1
20260505084548 21 212 20.9 30.6 0.00 0.00 0.00 87 1004.4
20260505083108 21 211 19.3 33.8 0.00 0.00 0.00 87 1004.5
20260505081603 21 202 17.7 29.0 0.00 0.00 0.00 86 1004.4
20260505080021 21 205 17.7 33.8 0.00 0.00 0.00 86 1004.5
20260505074518 21 198 16.1 32.2 0.00 0.00 0.00 85 1004.8
20260505073023 21 178 17.7 27.4 0.00 0.00 0.00 84 1005.4
20260505071548 21 207 17.7 29.0 0.00 0.00 0.00 83 1005.5
20260505070105 21 198 16.1 27.4 0.00 0.00 0.00 82 1005.7
20260505064513 21 215 17.7 30.6 0.00 0.00 0.00 81 1005.9
20260505063037 22 194 19.3 32.2 0.00 0.00 0.00 80 1006.0
20260505061616 22 198 22.5 38.6 0.00 0.00 0.00 79 1006.0
20260505060004 22 196 20.9 30.6 0.00 0.00 0.00 78 1005.9
20260505054519 22 217 20.9 38.6 0.00 0.00 0.00 77 1006.2
20260505053029 22 171 17.7 35.4 0.00 0.00 0.00 76 1006.2
20260505051556 23 188 19.3 32.2 0.00 0.00 0.00 75 1006.1
20260505041519 23 185 20.9 37.0 0.00 0.00 0.00 73 1006.3
20260505040028 23 209 19.3 35.4 0.00 0.00 0.00 73 1006.4
20260505034535 23 172 17.7 32.2 0.00 0.00 0.00 73 1006.3
20260505033030 23 175 19.3 29.0 0.00 0.00 0.00 73 1006.3
20260505031540 23 195 16.1 27.4 0.00 0.00 0.00 74 1006.1
20260505030045 23 175 16.1 22.5 0.00 0.00 0.00 74 1006.4
20260505024550 23 196 16.1 22.5 0.00 0.00 0.00 73 1006.2
20260505023058 24 199 12.9 24.1 0.00 0.00 0.00 73 1006.4
20260505021606 24 180 16.1 24.1 0.00 0.00 0.00 72 1006.1
20260505020105 25 178 16.1 33.8 0.00 0.00 0.00 71 1005.7
20260505014505 25 163 19.3 30.6 0.00 0.00 0.00 69 1006.0
20260505013116 25 161 12.9 20.9 0.00 0.00 0.00 69 1006.1
20260505011619 25 169 12.9 22.5 0.00 0.00 0.00 68 1005.5
20260505010009 25 190 12.9 19.3 0.00 0.00 0.00 68 1005.5
20260505004527 25 177 14.5 22.5 0.00 0.00 0.00 68 1005.5